TimeEDT,TemperatureF,Dew PointF,Humidity,Sea Level PressureIn,VisibilityMPH,Wind Direction,Wind SpeedMPH,Gust SpeedMPH,PrecipitationIn,Events,Conditions,WindDirDegrees,DateUTC
12:53 AM,75.0,72.0,90,30.14,10.0,SSW,4.6,-,N/A,,Clear,210,2012-10-05 04:53:00
1:53 AM,75.0,72.0,90,30.13,10.0,North,5.8,-,N/A,,Clear,350,2012-10-05 05:53:00
2:53 AM,75.0,72.0,90,30.12,10.0,NNE,3.5,-,N/A,,Clear,20,2012-10-05 06:53:00
3:50 AM,75.2,71.6,89,30.09,10.0,North,5.8,-,N/A,,Scattered Clouds,10,2012-10-05 07:50:00
3:53 AM,75.0,72.0,90,30.09,10.0,North,4.6,-,N/A,,Scattered Clouds,360,2012-10-05 07:53:00
4:03 AM,73.4,71.6,94,30.09,10.0,North,6.9,-,N/A,,Mostly Cloudy,10,2012-10-05 08:03:00
4:12 AM,75.2,71.6,89,30.09,10.0,North,4.6,-,N/A,,Scattered Clouds,10,2012-10-05 08:12:00
4:53 AM,75.0,72.0,90,30.10,10.0,North,4.6,-,N/A,,Partly Cloudy,360,2012-10-05 08:53:00
5:38 AM,73.4,71.6,94,30.09,10.0,North,3.5,-,N/A,,Mostly Cloudy,350,2012-10-05 09:38:00
5:53 AM,73.9,72.0,93,30.10,7.0,Calm,Calm,-,N/A,,Overcast,0,2012-10-05 09:53:00
6:53 AM,75.0,73.0,94,30.11,10.0,North,3.5,-,N/A,,Overcast,10,2012-10-05 10:53:00
7:10 AM,75.2,73.4,94,30.09,10.0,Calm,Calm,-,N/A,,Scattered Clouds,0,2012-10-05 11:10:00
7:53 AM,75.9,73.0,91,30.09,10.0,Calm,Calm,-,N/A,,Clear,0,2012-10-05 11:53:00
8:53 AM,79.0,73.9,84,30.10,10.0,NNE,3.5,-,N/A,,Clear,20,2012-10-05 12:53:00
9:53 AM,82.0,75.0,79,30.10,10.0,East,3.5,-,N/A,,Clear,90,2012-10-05 13:53:00
10:53 AM,84.0,75.0,74,30.09,10.0,East,6.9,-,N/A,,Mostly Cloudy,80,2012-10-05 14:53:00
11:26 AM,84.2,73.4,70,30.08,10.0,East,5.8,-,N/A,,Mostly Cloudy,80,2012-10-05 15:26:00
11:53 AM,87.1,73.9,65,30.08,10.0,Variable,3.5,-,N/A,,Partly Cloudy,0,2012-10-05 15:53:00
12:09 PM,87.8,73.4,62,30.07,10.0,ESE,3.5,-,N/A,,Mostly Cloudy,110,2012-10-05 16:09:00
12:31 PM,86.0,71.6,62,30.07,10.0,Variable,3.5,-,N/A,,Mostly Cloudy,0,2012-10-05 16:31:00
12:53 PM,88.0,72.0,59,30.07,10.0,Calm,Calm,-,N/A,,Scattered Clouds,0,2012-10-05 16:53:00
1:53 PM,87.1,73.0,63,30.04,10.0,ESE,5.8,-,0.00,,Scattered Clouds,110,2012-10-05 17:53:00
2:48 PM,87.8,71.6,58,30.01,10.0,NNE,8.1,-,N/A,Thunderstorm,Thunderstorm,30,2012-10-05 18:48:00
2:53 PM,86.0,73.0,65,30.01,10.0,East,11.5,-,N/A,Thunderstorm,Thunderstorm,80,2012-10-05 18:53:00
3:12 PM,80.6,71.6,74,30.01,10.0,ENE,10.4,-,N/A,Thunderstorm,Thunderstorm,60,2012-10-05 19:12:00
3:41 PM,77.0,73.4,89,30.03,1.8,North,11.5,-,0.15,Rain-Thunderstorm,Heavy Thunderstorms and Rain,350,2012-10-05 19:41:00
3:53 PM,75.9,73.0,91,30.03,3.0,North,15.0,-,0.21,Rain-Thunderstorm,Thunderstorms and Rain,350,2012-10-05 19:53:00
4:53 PM,77.0,73.0,88,30.02,10.0,Calm,Calm,-,0.01,Thunderstorm,Mostly Cloudy,0,2012-10-05 20:53:00
5:14 PM,75.2,73.4,94,30.00,10.0,Calm,Calm,-,0.00,,Overcast,0,2012-10-05 21:14:00
5:50 PM,77.0,73.4,89,30.00,10.0,East,5.8,-,0.00,,Mostly Cloudy,100,2012-10-05 21:50:00
5:53 PM,77.0,73.9,90,30.01,10.0,East,4.6,-,0.00,,Scattered Clouds,80,2012-10-05 21:53:00
6:53 PM,77.0,75.0,94,30.01,10.0,Calm,Calm,-,0.02,,Clear,0,2012-10-05 22:53:00
7:53 PM,78.1,75.0,90,30.02,10.0,Calm,Calm,-,N/A,,Clear,0,2012-10-05 23:53:00
8:53 PM,78.1,73.9,87,30.04,10.0,NNE,3.5,-,N/A,,Clear,20,2012-10-06 00:53:00
9:53 PM,78.1,75.0,90,30.04,10.0,East,4.6,-,N/A,,Clear,90,2012-10-06 01:53:00
10:53 PM,78.1,75.0,90,30.03,10.0,Calm,Calm,-,N/A,,Clear,0,2012-10-06 02:53:00
11:53 PM,78.1,75.0,90,30.01,10.0,Calm,Calm,-,N/A,,Clear,0,2012-10-06 03:53:00